Content
SEND FEEDBACK

Daily
Averages
Monthly
Summary
India

CHENNAI, INDIA


Home > Asia > India
Elevation: 52 feet     Latitude: 13 00N     Longitude: 080 11E

WEATHER
 
SELECT A DAY
Number of Records: 208,647;   Date Range: 7/1/96 - 12/19/14
 
SHARE

PRINT THIS DATA

[ ← Previous Day ]
WEATHER ALMANAC - MARCH 26, 2013
[ Next Day → ]
[ °C ]   °F
Weather ElementAverageHighLow
Temperature85.4 °F95 °F (12:10 pm)77 °F (4:10 am)
Dewpoint72.4 °F77 °F (8:30 pm)66.2 °F (11:40 am)
Humidity66.9 %89 % (2:10 am)31 % (11:30 am)
Barometer29.76 in29.84 in (8:30 am)29.68 in (3:40 pm)
Wind Speed7.5 mph16.1 mph (1:40 pm)
Weather ElementAverage
Visibility3.7 mi
Wind DirectionSE (140.4 °)

Weather ElementTotal
Precipitation---
Cooling Degree Days21 (Base 65)
Growing Degree Days36 (Base 50)
Averaged from 51 records on March 26, 2013
WEATHER CONDITIONS BREAKOUT
WIND DIRECTION BREAKOUT
WEATHER BY HOUR - MARCH 26, 2013
[ °C ]   °F
Local TimeTemperatureDewpointHumidityBarometerVisibilityWind DirectionWind SpeedGust SpeedPrecipitationEventsConditions
12:40 AM80.6 °F75.2 °F84 %29.77 in3.7 miSW (220°)2.3 mphScattered Clouds
1:10 AM80.6 °F75.2 °F84 %29.77 in3.7 miWest (280°)3.5 mphScattered Clouds
1:40 AM78.8 °F73.4 °F83 %29.74 in3.7 miWest (260°)2.3 mphScattered Clouds
2:10 AM78.8 °F75.2 °F89 %29.74 in3.7 miWest (260°)3.5 mphPartly Cloudy
2:30 AM80.0 °F75.0 °F80 %29.78 in2.0 miCalmScattered Clouds
2:40 AM78.8 °F75.2 °F89 %29.74 in3.7 miCalmPartly Cloudy
3:10 AM78.8 °F75.2 °F89 %29.74 in3.7 miCalmPartly Cloudy
3:40 AM78.8 °F73.4 °F83 %29.74 in3.7 miCalmPartly Cloudy
4:10 AM77.0 °F73.4 °F89 %29.74 in3.7 miCalmPartly Cloudy
5:10 AM77.0 °F73.4 °F89 %29.74 in3.1 miCalmHaze
5:30 AM77.0 °F74.0 °F88 %29.78 in2.0 miCalmScattered Clouds
5:40 AM77.0 °F73.4 °F89 %29.74 in2.5 miCalmHaze
6:10 AM77.0 °F73.4 °F89 %29.77 in2.5 miCalmHaze
7:10 AM78.8 °F75.2 °F89 %29.77 in1.6 miSSW (210°)4.6 mphHaze
7:40 AM80.6 °F75.2 °F84 %29.80 in1.6 miSW (230°)6.9 mphHaze
8:30 AM84.0 °F73.0 °F63 %29.84 in6.0 miSouth (180°)2.3 mphScattered Clouds
8:40 AM84.2 °F73.4 °F70 %29.83 in2.5 miSSW (210°)9.2 mphHaze
9:40 AM87.8 °F69.8 °F55 %29.83 in3.7 miSouth (190°)9.2 mphPartly Cloudy
10:10 AM89.6 °F69.8 °F52 %29.83 in3.7 miSSE (160°)10.4 mphPartly Cloudy
10:40 AM89.6 °F69.8 °F52 %29.83 in3.7 miSouth (180°)10.4 mphPartly Cloudy
11:10 AM91.4 °F68.0 °F46 %29.83 in4.3 miSE (140°)9.2 mphPartly Cloudy
11:30 AM94.0 °F67.0 °F31 %29.84 in6.0 miSSW (200°)3.5 mphScattered Clouds
11:40 AM93.2 °F66.2 °F41 %29.80 in4.3 miSSE (160°)6.9 mph
12:10 PM95.0 °F66.2 °F39 %29.77 in4.3 miSouth (190°)6.9 mph
12:40 PM95.0 °F66.2 °F39 %29.77 in4.3 miSSW (200°)8.1 mph
1:10 PM95.0 °F69.8 °F44 %29.74 in4.3 miSSE (160°)11.5 mph
1:40 PM93.2 °F71.6 °F49 %29.71 in5.0 miSE (130°)16.1 mph
2:10 PM93.2 °F69.8 °F46 %29.71 inSSE (150°)13.8 mphClear
2:30 PM94.0 °F72.0 °F39 %29.74 in6.0 miESE (110°)6.9 mphScattered Clouds
2:40 PM93.2 °F69.8 °F46 %29.71 inESE (120°)11.5 mphClear
3:10 PM93.2 °F69.8 °F46 %29.71 inSE (140°)11.5 mphClear
3:40 PM93.2 °F69.8 °F46 %29.68 inESE (120°)13.8 mphClear
4:10 PM91.4 °F68.0 °F46 %29.68 inESE (120°)16.1 mphClear
4:40 PM89.6 °F68.0 °F49 %29.68 inESE (120°)16.1 mphClear
5:10 PM89.6 °F66.2 °F46 %29.68 in5.0 miSE (140°)15.0 mph
5:30 PM89.0 °F70.0 °F45 %29.73 in6.0 miESE (110°)5.8 mphClear
5:40 PM87.8 °F66.2 °F49 %29.71 in5.0 miSE (130°)13.8 mph
6:10 PM86.0 °F69.8 °F58 %29.71 in4.3 miSE (130°)13.8 mph
6:40 PM86.0 °F73.4 °F66 %29.71 in4.3 miSE (130°)13.8 mph
7:10 PM84.2 °F73.4 °F70 %29.74 in3.7 miSE (130°)12.7 mph
7:40 PM84.2 °F75.2 °F74 %29.74 in3.7 miSE (140°)13.8 mphPartly Cloudy
8:10 PM84.2 °F75.2 °F74 %29.77 in3.7 miSE (130°)13.8 mphPartly Cloudy
8:30 PM83.0 °F77.0 °F77 %29.82 in2.0 miSSE (160°)9.2 mphClear
8:40 PM84.2 °F75.2 °F74 %29.80 in3.7 miSE (140°)11.5 mphPartly Cloudy
9:10 PM82.4 °F75.2 °F79 %29.80 in3.7 miESE (120°)9.2 mphPartly Cloudy
9:40 PM82.4 °F77.0 °F84 %29.80 in3.7 miSE (130°)9.2 mphPartly Cloudy
10:10 PM82.4 °F77.0 °F84 %29.83 in3.7 miSSE (160°)4.6 mphPartly Cloudy
10:40 PM82.4 °F77.0 °F84 %29.83 in3.7 miSouth (170°)4.6 mphPartly Cloudy
11:10 PM82.4 °F77.0 °F84 %29.80 in3.7 miSouth (180°)4.6 mphPartly Cloudy
11:30 PM82.0 °F77.0 °F82 %29.84 in2.0 miSouth (180°)3.5 mphScattered Clouds
11:40 PM82.4 °F77.0 °F84 %29.80 in3.7 miSSE (160°)4.6 mphPartly Cloudy
Hourly data recorded from VOMM, located miles away from Chennai, India







STORIES FROM OUR PARTNERS